SCP
0 0 0 0 0 0 0 0 0 0 0 0 0 0 0 0 0 0 0 0 0 0 0 0 0 0 0 0 0 0 0 0 0 0 0 0 0 0 0 0 0 0 0
0 0 0 0 0 0 0 0 0 0 0 0 0 0 0 0 0 0 0 0 0 0 0 0 0 0 0 0 0 0 0 0 0 0 0 0 0 0 0 0 0 0 0
0 0 0 0 0 0 0 0 0 0 0 0 0 0 0 0 0 0 0 0 0 0 0 0 0 0 0 0 0 0 0 0 0 0 0 0 0 0 0 0 0 0 0
0 0 0 0 0 0 0 0 0 0 0 0 0 0 0 0 0 0 0 0 0 0 0 0 0 0 0 0 0 0 0 0 0 0 0 0 0 0 0 0 0 0 0
0 0 0 0 0 0 0 0 0 0 0 0 0 0 0 0 0 0 0 0 0 0 0 0 0 0 0 0 0 0 0 0 0 0 0 0 0 0 0 0 0 0 0
0 0 0 0 0 0 0 0 0 0 0 0 0 0 0 0 0 0 0 0 0 0 0 0 0 0 0 0 -0 -0 0 0 0 0 0 0 0 0 0 0 0 0 0
0 0 0 0 0 0 0 0 0 0 0 0 0 0 0 0 0 0 0 0 0 0 0 0 0 0 -0 -0 -0 -0 0 0 0 0 0 0 0 0 0 0 0 0 0
0 0 0 0 0 0 0 0 0 0 0 0 0 0 0 0 0 0 0 0 0 0 0 0 0 -0 -0 -0 0 0 0 0 0 0 0 0 0 0 0 0 0 0 0
0 0 0 0 0 0 -0 -0 -0 -0 0 0 0 0 0 0 0 0 0 0 0 0 0 0 0 0 0 0 0 0 0 0 0 0 0 0 0 0 0 0 0 0 0
0 0 0 0 0 -0 -0 -0 -0 0 0 0 0 0 0 0 0 0 0 0 0 0 0 0 0 0 0 0 0 0 0 0 0 0 0 0 0 0 0 0 0 0 0
0 0 0 0 0 -0 -0 0 0 0 0 0 0 0 0 0 0 0 0 0 0 0 0 0 0 0 0 0 0 0 0 0 0 0 0 0 0 0 0 0 0 0 0
0 0 0 0 -0 -0 -0 0 0 0 0 0 0 0 0 0 0 0 0 -0 -0 0 0 0 0 0 0 0 0 0 0 0 0 0 0 0 0 0 0 0 0 0 0
-0 -0 0 0 0 0 0 0 0 0 0 0 0 0 0 0 0 0 0 0 -0 -0 -0 0 0 0 0 0 0 0 0 0 0 0 0 0 0 0 0 0 0 0 0
-0 -0 0 0 0 0 0 0 0 0 0 0 0 0 0 0 0 0 0 0 0 0 0 0 0 0 0 0 0 0 0 0 0 0 0 0 0 0 0 0 0 0 0
0 0 0 0 0 0 0 0 0 0 0 0 0 0 0 0 0 0 0 0 0 0 0 0 0 0 0 0 0 0 0 0 0 0 0 0 0 0 0 0 0 0 0
0 0 0 0 0 0 0 0 0 0 0 0 0 0 0 0 0 0 0 0 0 0 0 0 0 0 0 0 0 0 0 0 0 0 0 -0 -0 0 0 0 0 0 0
0 0 0 0 0 0 0 0 0 0 0 0 0 0 0 0 0 -0 -0 -0 -0 0 0 0 0 0 0 0 0 0 0 0 0 0 0 0 0 0 0 0 -0 -0 0
0 0 0 0 0 0 0 0 0 0 0 0 0 0 0 -0 -0 -0 -0 -0 -0 -0 0 0 0 0 0 0 0 0 0 0 0 0 0 0 0 0 0 0 -0 0 0
0 0 0 0 0 0 0 0 0 0 0 0 0 0 0 -0 -0 -0 -0 -0 -0 -0 -0 0 0 0 0 0 0 0 0 0 0 0 0 0 0 0 0 0 0 0 0
0 0 0 0 0 0 0 0 0 0 0 0 0 0 0 -0 -0 0 0 0 -0 -0 -0 -0 0 0 0 0 0 0 0 0 0 0 0 0 0 0 0 0 0 0 0
0 0 0 0 0 0 0 0 0 0 0 0 0 0 0 0 0 0 0 0 0 -0 -0 0 0 0 0 0 0 0 0 0 0 0 0 0 0 0 0 0 0 0 0
0 0 0 0 0 0 0 0 0 0 0 0 0 0 0 0 0 0 0 0 0 0 0 0 0 0 0 0 0 0 0 0 0 0 0 0 0 0 0 0 0 0 0
0 0 0 0 0 0 0 0 0 0 0 0 0 0 0 0 0 0 0 0 0 0 0 0 0 0 0 0 0 0 0 0 0 0 0 0 0 0 0 0 0 0 0
0 0 0 0 0 0 0 0 0 0 0 0 0 0 0 0 0 0 0 0 0 0 0 0 0 0 0 0 0 0 0 0 0 0 0 0 0 0 0 0 0 0 0
0 0 0 0 0 0 0 0 0 0 0 0 0 0 0 0 0 0 0 0 0 0 0 0 0 0 0 0 0 0 0 0 0 0 0 0 0 0 0 0 0 0 0
0 0 0 0 0 0 0 0 0 0 0 0 0 0 0 0 0 0 0 0 0 0 0 0 0 0 0 0 0 0 0 0 0 0 0 0 0 0 0 0 0 0 0
Wind_Speed
7 6 6 6 7 7 7 7 6 5 5 9 10 10 9 9 10 9 10 10 11 10 11 11 13 12 9 9 9 8 8 8 9 6 3 4 3 5 5 7 6 7 8
4 5 6 6 7 8 7 7 6 7 7 8 9 9 11 12 12 11 12 11 11 12 13 13 13 11 12 11 10 10 10 9 9 7 4 4 3 5 8 8 7 7 9
6 6 7 8 8 8 7 7 7 9 9 10 9 10 12 12 12 11 11 10 11 12 13 14 14 14 14 12 12 11 9 9 9 6 6 4 4 6 9 8 9 8 8
6 7 7 7 7 8 8 7 8 10 10 10 10 10 10 10 10 10 10 11 12 12 13 14 15 15 14 13 13 13 11 10 8 7 9 9 9 7 8 9 10 8 7
6 7 7 7 7 8 7 8 9 11 10 9 9 9 9 8 9 11 11 10 11 11 12 12 12 15 19 17 12 10 10 9 7 8 10 8 8 9 8 8 11 9 7
7 8 9 7 6 7 8 8 10 8 7 7 7 8 8 7 12 15 11 7 9 10 10 10 10 12 13 15 17 16 12 10 7 9 9 12 12 11 11 11 12 10 6
8 10 9 7 8 9 9 9 7 5 5 5 6 7 9 10 15 16 14 8 8 9 10 10 9 8 10 9 12 14 12 11 16 14 14 14 14 13 14 12 9 9 8
10 9 8 9 8 8 9 5 2 2 3 4 4 5 7 10 14 16 17 9 8 10 12 13 11 9 8 5 3 2 2 6 11 10 13 13 14 15 13 14 13 14 12
10 9 9 8 8 9 6 2 1 2 3 5 6 7 7 9 14 16 14 10 9 11 12 13 13 10 13 12 8 7 7 8 13 17 18 20 22 23 20 16 14 14 11
9 8 8 7 6 5 3 3 2 3 3 4 5 6 8 8 10 12 12 7 8 8 10 12 17 16 17 16 11 10 13 13 18 19 22 23 20 21 20 15 14 12 11
8 7 6 5 3 3 3 3 3 4 4 5 5 7 7 8 11 16 13 5 5 6 8 9 11 18 18 17 14 12 14 15 18 17 15 13 12 11 10 9 9 9 8
5 4 4 4 4 5 5 5 4 4 5 6 6 7 7 9 12 16 17 12 9 8 8 8 10 16 17 16 12 14 14 13 11 11 10 9 9 9 9 10 9 5 8
4 5 6 6 5 6 6 6 5 6 5 4 5 7 8 8 9 14 16 16 16 11 10 12 14 16 15 13 15 14 10 8 8 8 8 8 8 9 10 10 7 8 13
5 5 5 5 6 6 6 5 5 5 5 5 5 5 5 7 7 7 8 9 13 12 11 12 13 12 13 13 11 9 7 7 7 7 7 8 7 8 7 8 8 10 9
4 4 5 5 5 5 5 4 4 3 2 4 4 3 4 5 7 10 10 9 8 10 9 8 9 10 10 10 9 8 7 6 7 7 8 8 6 7 8 10 10 9 9
2 2 2 3 4 4 4 5 4 6 10 13 11 7 6 8 12 14 14 16 16 13 9 9 9 9 9 9 8 8 8 6 5 6 7 6 7 9 10 9 10 10 10
4 4 2 1 2 3 3 4 5 7 10 14 14 11 11 11 13 14 15 15 15 12 8 8 8 8 8 8 7 7 6 5 4 5 6 7 8 9 11 10 10 10 9
1 4 4 3 1 2 3 3 4 4 6 8 8 8 12 14 14 14 14 10 9 9 8 7 7 7 7 7 7 7 6 6 4 4 4 6 7 9 9 9 9 10 9
4 3 3 3 2 2 3 3 4 5 6 5 4 6 9 10 10 11 11 8 8 7 7 7 7 6 6 6 6 6 6 5 4 3 4 6 6 8 9 8 9 12 10
6 7 6 4 4 4 4 5 5 6 6 6 5 3 3 5 5 6 8 7 7 7 7 7 7 7 6 5 5 5 5 5 5 3 4 6 6 8 8 9 9 10 8
6 7 8 7 6 5 5 5 5 5 5 6 4 3 6 4 4 5 6 7 7 7 7 7 6 6 6 6 5 5 5 5 4 3 4 6 6 7 7 8 9 10 10
6 7 7 7 7 7 6 6 6 6 6 7 5 6 8 5 4 5 6 7 7 7 7 6 6 5 5 5 5 5 4 4 5 4 4 6 7 7 8 8 9 10 11
6 7 8 7 7 8 8 7 6 6 6 7 7 6 4 4 5 5 6 6 6 7 7 7 6 6 6 5 5 4 4 3 3 2 3 6 8 8 8 8 9 10 10
7 7 7 7 8 7 6 6 6 7 8 7 7 7 6 5 6 7 6 6 7 7 7 7 7 8 8 7 5 4 3 3 3 3 4 6 8 9 8 8 8 10 9
7 7 7 7 7 6 6 7 7 7 7 7 7 7 8 7 6 7 7 7 8 8 9 8 7 9 10 10 9 7 5 4 4 4 4 6 9 9 9 9 8 8 8
7 8 7 6 6 5 6 7 7 6 7 7 7 7 8 8 8 8 8 8 9 9 9 9 10 12 12 10 11 9 7 6 6 5 5 7 8 8 8 7 8 7 7
Wind_Direction
16 7 2 347 334 328 327 327 312 303 311 309 311 308 296 278 280 286 287 287 282 281 279 277 271 269 266 264 260 251 238 231 244 235 172 146 135 111 80 59 31 47 62
9 357 342 328 331 331 324 316 309 305 299 301 303 295 291 295 296 293 289 284 283 283 284 282 278 277 271 264 258 250 241 232 231 224 153 137 120 123 106 89 70 55 65
355 341 325 325 328 321 313 311 306 304 305 305 302 302 300 299 297 295 293 293 291 286 283 278 274 267 260 256 253 250 242 233 221 203 143 132 131 127 112 102 86 75 67
333 326 318 315 312 304 296 297 301 305 306 306 305 301 302 304 304 308 310 301 293 287 281 274 266 258 253 253 249 240 238 234 220 182 149 149 143 137 127 123 105 85 68
312 299 287 281 287 290 285 297 305 307 310 312 312 317 318 317 320 320 306 299 297 296 292 287 280 272 263 263 267 247 234 229 213 160 147 146 146 146 140 132 116 106 74
293 285 278 277 296 300 302 310 308 311 316 321 330 329 328 325 322 320 322 315 311 309 306 307 303 296 284 278 279 275 258 216 167 154 153 152 157 148 140 142 130 128 103
295 301 309 318 311 309 309 310 317 323 330 339 342 343 341 338 341 339 340 331 318 319 325 329 322 309 297 276 271 268 260 212 170 157 156 159 153 147 137 131 126 111 106
311 314 319 313 311 310 308 312 315 315 334 321 316 323 329 329 333 343 341 330 328 339 346 351 344 329 320 295 285 314 249 174 153 145 142 139 133 132 128 121 114 107 105
317 321 314 310 310 308 312 309 322 323 308 301 298 307 313 315 330 340 344 340 345 351 352 354 357 1 9 32 39 50 63 86 90 99 108 116 122 124 124 120 123 124 118
316 312 305 307 304 308 320 344 342 312 302 306 316 328 331 332 330 331 339 337 342 349 354 354 6 18 24 31 43 58 71 84 96 94 95 99 107 113 119 124 133 130 125
312 315 314 318 333 335 336 342 331 330 343 360 357 342 343 349 347 349 353 360 3 8 10 3 8 21 30 34 47 60 76 87 94 97 101 105 108 109 113 115 122 130 129
320 340 359 15 35 14 6 357 359 16 40 28 9 2 1 0 4 4 18 22 19 27 18 14 11 20 34 37 47 58 72 85 91 97 103 109 113 118 117 120 133 128 117
14 19 9 11 29 24 25 25 31 42 44 30 25 19 8 9 9 8 15 17 19 21 18 16 18 24 28 35 41 45 62 82 95 101 104 109 113 120 125 133 113 110 122
17 14 10 24 34 27 28 34 46 35 25 29 32 26 17 15 3 9 19 17 17 16 10 15 19 27 29 29 33 32 45 64 84 96 100 107 108 117 121 119 114 120 114
355 3 12 20 24 19 26 30 40 31 37 26 21 54 50 38 28 31 33 34 26 17 14 21 24 21 23 23 23 24 36 56 76 91 103 115 112 102 106 115 119 115 110
320 330 354 6 11 20 24 18 13 22 38 52 47 68 56 37 28 25 25 34 26 20 27 29 28 23 22 16 14 17 29 42 59 86 101 110 103 105 108 107 113 116 117
207 204 239 281 353 7 16 21 9 359 43 62 65 72 74 53 35 27 24 27 26 24 30 29 25 24 19 14 12 12 15 22 56 78 103 110 108 110 112 114 117 116 115
127 174 192 208 239 311 342 355 8 23 44 58 61 66 67 51 35 27 22 26 31 30 27 25 23 17 17 14 9 8 6 10 37 68 91 110 112 117 115 117 122 121 118
81 86 103 120 124 91 46 38 41 46 52 58 50 47 50 40 23 26 25 33 31 30 25 20 17 14 14 13 9 6 5 7 19 55 105 118 110 118 117 119 125 123 119
57 67 76 80 81 73 59 49 42 42 40 46 51 42 32 28 15 37 35 28 27 23 23 19 13 6 7 14 9 6 6 7 11 28 103 115 106 111 116 123 127 123 116
58 53 60 64 62 61 56 53 50 45 39 47 46 55 58 42 2 17 37 32 24 18 16 18 13 7 0 5 10 6 5 3 3 14 93 110 107 110 114 117 122 119 115
61 59 60 60 61 59 55 49 46 40 32 37 30 42 47 35 17 5 24 36 28 20 13 13 10 5 357 355 0 3 3 3 2 7 72 98 110 108 107 111 120 123 124
71 69 66 61 61 58 52 43 42 39 36 33 37 35 30 31 28 19 11 23 30 23 15 12 7 2 357 351 349 353 353 346 345 20 72 97 108 106 108 116 124 127 130
75 73 70 66 64 58 51 43 38 39 38 34 33 31 26 34 38 25 8 13 22 19 18 14 7 2 358 355 348 347 347 342 1 59 79 102 110 110 109 110 112 116 119
79 77 73 70 66 60 56 51 44 37 35 37 33 28 23 21 26 32 15 8 24 18 13 13 9 2 359 2 2 359 2 22 52 71 72 100 105 108 106 107 114 114 116
79 78 74 69 63 60 62 61 51 41 37 34 30 29 26 22 21 21 17 10 18 17 12 12 7 5 1 2 0 2 15 45 75 73 67 90 94 96 103 109 116 117 115